Tracking 35331 objects as of 16-Sep-2026
HD Live streaming from Space Station
objects crossing your sky now

COSMOS 1408 DEB


COSMOS 1408 DEB is no longer on orbit


NORAD ID: 52809
Int'l Code: 1982-092BZW
Launch date: September 16, 1982
Source: Commonwealth of Independent States (former USSR) (CIS)
Launch site: PLESETSK MISSILE AND SPACE COMPLEX (PKMTR)
Decay date: 2023-05-04

Note: This is SATELLITE DEBRIS
Your satellite tracking list
Your tracking list is empty




NASA's NSSDC Master Catalog

Two Line Element Set (TLE):
1 52809U 82092BZW 23083.22817244  .00383565  00000-0  15315-1 0  9997
2 52809  82.5422  13.3651 0145885 178.7830 181.3790 15.14495523 50859
Source of the keplerian elements: AFSPC